Regional Weather Roundup
Issued by NWS

Home | Current Version | Previous Version | Text Only | Print | Product List | Glossary Off
Versions: 1 2 3 4 5 6 7 8 9 10 11 12 13 14 15 16 17 18 19 20 21 22 23 24 25 26 27 28 29 30 31 32 33 34 35 36 37 38 39 40 41 42 43 44 45 46 47 48 49 50

000
ASUS43 KFSD 261402
RWRSD

WEATHER ROUNDUP FOR SOUTH DAKOTA
NATIONAL WEATHER SERVICE SIOUX FALLS SD
900 AM CDT WED APR 26 2017

NOTE: "FAIR" INDICATES FEW OR NO CLOUDS BELOW 12,000 FEET WITH NO
SIGNIFICANT WEATHER AND/OR OBSTRUCTIONS TO VISIBILITY.


SDZ001>005-009-010-012>017-261500-
NORTHWEST AND NORTH CENTRAL SOUTH DAKOTA

CITY           SKY/WX    TMP DP  RH WIND       PRES   REMARKS
BUFFALO          N/A     33  25  72 N9        29.80S WCI  25
FAITH            N/A     32  27  81 N16       29.86R WCI  21
MOBRIDGE       CLOUDY    34  23  64 N15G26    29.80S WCI  24
$$

SDZ012>016-024>037-041>051-057-063-072>074-261500-
SOUTHWEST AND SOUTH CENTRAL SOUTH DAKOTA

CITY           SKY/WX    TMP DP  RH WIND       PRES   REMARKS
RAPID CTY ARPT CLOUDY    29  24  82 NW15      29.87S WCI  18
PIERRE         CLOUDY    33  26  75 N21G26    29.83R WCI  21
CUSTER         FOG       22  20  92 VRB3      29.77S VSB 1/4
ELLSWORTH AFB  CLOUDY    28  26  91 NW16      29.86S WCI  16
PHILIP         CLOUDY    33  28  81 NW12      29.88R WCI  24
PINE RIDGE     CLOUDY    31  26  82 N9        29.88R WCI  23
SPEARFISH      FAIR      23  21  93 W7        29.86S WCI  15
WINNER         CLOUDY    34  29  82 NW23G29   29.80F WCI  22
$$

SDZ004>011-016>023-039-040-261500-
NORTHEAST SOUTH DAKOTA

CITY           SKY/WX    TMP DP  RH WIND       PRES   REMARKS
ABERDEEN       LGT SNOW  30  26  85 N17       29.78F FOG     WCI  18
WATERTOWN      CLOUDY    29  27  92 N20       29.67S WCI  16
BROOKINGS      CLOUDY    31  29  92 NW17      29.65R WCI  19
SISSETON         N/A     30  28  92 N21       29.70S WCI  17
$$

SDZ017-020-022-023-036>040-048>070-261500-
SOUTHEAST SOUTH DAKOTA

CITY           SKY/WX    TMP DP  RH WIND       PRES   REMARKS
SIOUX FALLS    CLOUDY    35  33  92 NW20      29.66R WCI  24
HURON          CLOUDY    32  28  85 N21G28    29.74F WCI  20
CHAMBERLAIN    CLOUDY    35  31  85 W15       29.79S WCI  25
MITCHELL       CLOUDY    34  29  82 N21G28    29.74F WCI  22
YANKTON        CLOUDY   N/A N/A N/A NW18G30   29.71R
$$

ABBREVIATIONS USED IN REMARKS
   TC - TEMPERATURE IN CELSIUS
  WCI - WIND CHILL INDEX
   HX - HEAT INDEX
  VSB - VISIBILITY




USA.gov is the U.S. government's official web portal to all federal, state and local government web resources and services.